• In Deutschland
  • Länderverzeichnis
  • Für 7 Tage
  • Wassertemperatur
  • Satellitenkarten
  • Wetterkarte
  • Widgets
  • user-avatar
    Anmelden

    Stündliche Wetter Sankt Wendel

    Heute, 18 Oktober, Mittwoch

    Zeit Temperatur Niederschläge Wind Luftdruck Luftfeuchtigkeit
    00:00 +13°C° 0 mm 1 m/S 737 mmHg 75%
    01:00 +12°C° 0 mm 1 m/S 737 mmHg 74%
    02:00 +12°C° 0 mm 1 m/S 736 mmHg 74%
    03:00 +12°C° 0 mm 1 m/S 736 mmHg 74%
    04:00 +12°C° 0 mm 2 m/S 736 mmHg 76%
    05:00 +10°C° 0 mm 2 m/S 736 mmHg 78%
    06:00 +9°C° 0 mm 1 m/S 736 mmHg 80%
    07:00 +10°C° 0 mm 2 m/S 736 mmHg 76%
    08:00 +13°C° 0 mm 2 m/S 736 mmHg 72%
    09:00 +14°C° 0 mm 3 m/S 736 mmHg 68%
    10:00 +16°C° 0 mm 3 m/S 736 mmHg 65%
    11:00 +18°C° 0 mm 3 m/S 736 mmHg 62%
    12:00 +19°C° 0 mm 2 m/S 736 mmHg 60%
    13:00 +19°C° 0 mm 2 m/S 736 mmHg 62%
    14:00 +19°C° 0 mm 2 m/S 735 mmHg 64%
    15:00 +19°C° 0 mm 2 m/S 735 mmHg 67%
    16:00 +19°C° 0 mm 1 m/S 735 mmHg 72%
    17:00 +16°C° 0 mm 1 m/S 735 mmHg 77%
    18:00 +14°C° 0 mm 1 m/S 735 mmHg 83%
    19:00 +13°C° 0 mm 1 m/S 735 mmHg 83%
    20:00 +13°C° 0 mm 1 m/S 735 mmHg 82%
    21:00 +13°C° 0 mm 1 m/S 735 mmHg 82%
    22:00 +12°C° 0 mm 1 m/S 735 mmHg 81%
    23:00 +12°C° 0 mm 1 m/S 735 mmHg 80%

    Morgen, 19 Oktober, Donnerstag

    Zeit Temperatur Niederschläge Wind Luftdruck Luftfeuchtigkeit
    00:00 +12°C° 0 mm 1 m/S 735 mmHg 79%
    01:00 +12°C° 0 mm 1 m/S 735 mmHg 79%
    02:00 +11°C° 0 mm 1 m/S 734 mmHg 79%
    03:00 +11°C° 0 mm 1 m/S 734 mmHg 78%
    04:00 +11°C° 0 mm 1 m/S 734 mmHg 78%
    05:00 +11°C° 0 mm 1 m/S 734 mmHg 78%
    06:00 +11°C° 0 mm 1 m/S 734 mmHg 78%
    07:00 +13°C° 0 mm 1 m/S 734 mmHg 72%
    08:00 +15°C° 0 mm 2 m/S 735 mmHg 67%
    09:00 +17°C° 0 mm 2 m/S 735 mmHg 61%
    10:00 +18°C° 0 mm 2 m/S 735 mmHg 57%
    11:00 +20°C° 0 mm 3 m/S 735 mmHg 54%
    12:00 +21°C° 0 mm 3 m/S 735 mmHg 50%
    13:00 +21°C° 0 mm 3 m/S 734 mmHg 53%
    14:00 +21°C° 0 mm 2 m/S 734 mmHg 56%
    15:00 +20°C° 0 mm 2 m/S 734 mmHg 58%
    16:00 +18°C° 0 mm 2 m/S 734 mmHg 62%
    17:00 +18°C° 0 mm 1 m/S 734 mmHg 66%
    18:00 +15°C° 0 mm 1 m/S 734 mmHg 70%
    19:00 +14°C° 0 mm 1 m/S 734 mmHg 71%
    20:00 +14°C° 0 mm 1 m/S 734 mmHg 72%
    21:00 +13°C° 0 mm 1 m/S 734 mmHg 72%
    22:00 +13°C° 0 mm 1 m/S 734 mmHg 72%
    23:00 +13°C° 0 mm 1 m/S 734 mmHg 72%

    übermorgen, 20 Oktober, Freitag

    Zeit Temperatur Niederschläge Wind Luftdruck Luftfeuchtigkeit
    00:00 +13°C° 0 mm 1 m/S 734 mmHg 72%
    01:00 +13°C° 0 mm 1 m/S 734 mmHg 72%
    02:00 +13°C° 0 mm 1 m/S 734 mmHg 72%
    03:00 +13°C° 0 mm 2 m/S 734 mmHg 72%
    04:00 +13°C° 0,1 mm 2 m/S 735 mmHg 73%
    05:00 +13°C° 0,1 mm 2 m/S 735 mmHg 74%
    06:00 +13°C° 0,1 mm 2 m/S 735 mmHg 76%
    07:00 +13°C° 0,8 mm 2 m/S 735 mmHg 78%
    08:00 +12°C° 0,8 mm 3 m/S 735 mmHg 81%
    09:00 +13°C° 0,8 mm 3 m/S 736 mmHg 83%
    10:00 +13°C° 0,5 mm 3 m/S 736 mmHg 84%
    11:00 +13°C° 0,5 mm 4 m/S 736 mmHg 85%
    12:00 +14°C° 0,5 mm 4 m/S 736 mmHg 86%
    13:00 +14°C° 0,2 mm 4 m/S 736 mmHg 86%
    14:00 +14°C° 0,2 mm 4 m/S 736 mmHg 85%
    15:00 +14°C° 0,2 mm 4 m/S 736 mmHg 85%
    16:00 +13°C° 0,1 mm 3 m/S 736 mmHg 87%
    17:00 +12°C° 0,1 mm 3 m/S 737 mmHg 90%
    18:00 +12°C° 0,1 mm 2 m/S 737 mmHg 92%
    19:00 +12°C° 0 mm 2 m/S 737 mmHg 93%
    20:00 +10°C° 0 mm 2 m/S 737 mmHg 93%
    21:00 +10°C° 0 mm 2 m/S 737 mmHg 94%
    22:00 +10°C° 0 mm 2 m/S 737 mmHg 94%
    23:00 +10°C° 0 mm 2 m/S 737 mmHg 95%

    21 Oktober, Samstag

    Zeit Temperatur Niederschläge Wind Luftdruck Luftfeuchtigkeit
    00:00 +10°C° 0 mm 2 m/S 737 mmHg 95%
    01:00 +12°C° 0 mm 2 m/S 736 mmHg 95%
    02:00 +12°C° 0 mm 2 m/S 736 mmHg 95%
    03:00 +12°C° 0 mm 2 m/S 736 mmHg 94%
    04:00 +12°C° 0 mm 2 m/S 736 mmHg 94%
    05:00 +11°C° 0 mm 3 m/S 736 mmHg 94%
    06:00 +11°C° 0 mm 3 m/S 735 mmHg 94%
    07:00 +12°C° 0,1 mm 3 m/S 736 mmHg 91%
    08:00 +13°C° 0,1 mm 4 m/S 736 mmHg 88%
    09:00 +14°C° 0,1 mm 4 m/S 736 mmHg 85%
    10:00 +13°C° 1,2 mm 4 m/S 736 mmHg 88%
    11:00 +13°C° 1,2 mm 4 m/S 736 mmHg 90%
    12:00 +13°C° 1,2 mm 5 m/S 736 mmHg 92%
    13:00 +13°C° 0,6 mm 5 m/S 736 mmHg 90%
    14:00 +13°C° 0,6 mm 5 m/S 736 mmHg 88%
    15:00 +13°C° 0,6 mm 5 m/S 736 mmHg 87%
    16:00 +12°C° 0,1 mm 5 m/S 736 mmHg 88%
    17:00 +10°C° 0,1 mm 5 m/S 737 mmHg 88%
    18:00 +10°C° 0,1 mm 5 m/S 737 mmHg 89%
    19:00 +9°C° 0,1 mm 5 m/S 737 mmHg 89%
    20:00 +9°C° 0,1 mm 5 m/S 737 mmHg 89%
    21:00 +8°C° 0,1 mm 5 m/S 737 mmHg 89%
    22:00 +8°C° 0 mm 5 m/S 737 mmHg 89%
    23:00 +8°C° 0 mm 5 m/S 737 mmHg 89%

    22 Oktober, Sonntag

    Zeit Temperatur Niederschläge Wind Luftdruck Luftfeuchtigkeit
    00:00 +7°C° 0 mm 5 m/S 737 mmHg 88%
    01:00 +7°C° 0 mm 5 m/S 737 mmHg 89%
    02:00 +6°C° 0 mm 5 m/S 737 mmHg 89%
    03:00 +6°C° 0 mm 5 m/S 737 mmHg 89%
    04:00 +6°C° 0 mm 5 m/S 737 mmHg 89%
    05:00 +6°C° 0 mm 5 m/S 737 mmHg 88%
    06:00 +6°C° 0 mm 5 m/S 737 mmHg 88%
    07:00 +5°C° 0 mm 6 m/S 737 mmHg 85%
    08:00 +7°C° 0 mm 6 m/S 738 mmHg 83%
    09:00 +7°C° 0 mm 6 m/S 738 mmHg 81%
    10:00 +8°C° 0,1 mm 7 m/S 738 mmHg 78%
    11:00 +8°C° 0,1 mm 7 m/S 738 mmHg 75%
    12:00 +9°C° 0,1 mm 7 m/S 737 mmHg 72%
    13:00 +9°C° 0,2 mm 6 m/S 737 mmHg 74%
    14:00 +8°C° 0,2 mm 6 m/S 737 mmHg 75%
    15:00 +8°C° 0,2 mm 6 m/S 737 mmHg 77%
    16:00 +8°C° 0,2 mm 6 m/S 738 mmHg 80%
    17:00 +7°C° 0,2 mm 5 m/S 738 mmHg 83%
    18:00 +7°C° 0,2 mm 5 m/S 738 mmHg 86%
    19:00 +7°C° 0,2 mm 5 m/S 738 mmHg 86%
    20:00 +6°C° 0,2 mm 5 m/S 739 mmHg 87%
    21:00 +6°C° 0,2 mm 5 m/S 739 mmHg 88%
    22:00 +6°C° 0,2 mm 5 m/S 739 mmHg 89%
    23:00 +6°C° 0,2 mm 5 m/S 739 mmHg 89%

    23 Oktober, Montag

    Zeit Temperatur Niederschläge Wind Luftdruck Luftfeuchtigkeit
    00:00 +6°C° 0,2 mm 5 m/S 739 mmHg 90%
    01:00 +6°C° 0,1 mm 5 m/S 739 mmHg 90%
    02:00 +6°C° 0,1 mm 5 m/S 739 mmHg 91%
    03:00 +7°C° 0,1 mm 5 m/S 740 mmHg 91%
    04:00 +7°C° 0 mm 4 m/S 740 mmHg 91%
    05:00 +6°C° 0 mm 4 m/S 740 mmHg 92%
    06:00 +6°C° 0 mm 4 m/S 740 mmHg 92%
    07:00 +7°C° 0 mm 4 m/S 741 mmHg 91%
    08:00 +7°C° 0 mm 4 m/S 741 mmHg 90%
    09:00 +8°C° 0 mm 4 m/S 742 mmHg 88%
    10:00 +8°C° 0,1 mm 4 m/S 742 mmHg 88%
    11:00 +8°C° 0,1 mm 4 m/S 742 mmHg 88%
    12:00 +10°C° 0,1 mm 4 m/S 742 mmHg 88%
    13:00 +10°C° 0,1 mm 4 m/S 742 mmHg 88%
    14:00 +10°C° 0,1 mm 4 m/S 742 mmHg 87%
    15:00 +11°C° 0,1 mm 4 m/S 742 mmHg 87%
    16:00 +10°C° 0 mm 3 m/S 742 mmHg 88%
    17:00 +9°C° 0 mm 3 m/S 742 mmHg 90%
    18:00 +9°C° 0 mm 3 m/S 742 mmHg 92%
    19:00 +8°C° 0 mm 3 m/S 743 mmHg 93%
    20:00 +8°C° 0 mm 2 m/S 743 mmHg 93%
    21:00 +7°C° 0 mm 2 m/S 743 mmHg 94%
    22:00 +7°C° 0 mm 2 m/S 743 mmHg 94%
    23:00 +7°C° 0 mm 2 m/S 743 mmHg 94%
    Mehr zeigen